Poplar Bluff, MO

1:04 AM CDT on March 26, 2017 (GMT -0500)
Poplar Bluff Municipal

Weather History for KPOF - March, 2014

Change the Weather History Date:

Thursday, March 13, 2014

  Actual Average Record
Temperature  
Mean Temperature 46 °F -  
Max Temperature 62 °F 58 °F 84 °F (1967)
Min Temperature 30 °F 36 °F 16 °F (1932)
Degree Days  
Heating Degree Days 19    
Moisture  
Dew Point 30 °F    
Average Humidity 57    
Maximum Humidity 79    
Minimum Humidity 34    
Precipitation  
Precipitation 0.00 in - - ()
Sea Level Pressure  
Sea Level Pressure 30.13 in    
Wind  
Wind Speed 4 mph (South)    
Max Wind Speed 15 mph    
Max Gust Speed 17 mph    
Visibility 10 miles    
Events      
Averages and records for this station are not official NWS values.
T = Trace of Precipitation, MM = Missing Value Source: NWS Daily Summary

Daily Weather History Graph

Daily Weather History Graph

Search for Another Location

Airport or City:

Trip Planner

Search our weather history database for the weather conditions in past years. The results will help you decide how hot, cold, wet, or windy it might be!

Date:

Astronomy

Mar. 13, 2014 Rise Set
Actual Time 7:15 AM CDT 7:06 PM CDT
Civil Twilight 6:49 AM CDT 7:32 PM CDT
Nautical Twilight 6:19 AM CDT 8:02 PM CDT
Astronomical Twilight 5:49 AM CDT 8:33 PM CDT
Moon 4:35 PM CDT (3/13) 5:18 AM CDT (3/13)
Length of Visible Light 12h 43m
Length of Day
11h 51m
Waxing Gibbous, 91% of the Moon is Illuminated
Mar 13
Waxing Gibbous
Mar 16
Full
Mar 23
Last Quarter
Mar 30
New
Apr 7
First Quarter

Hourly Weather History & Observations

Time (CDT) Temp. Windchill Dew Point Humidity Pressure Visibility Wind Dir Wind Speed Gust Speed Precip Events Conditions
12:53 AM 36.0 °F - 27.0 °F 70% 30.16 in 10.0 mi Calm Calm - N/A   Mostly Cloudy
1:53 AM 34.0 °F - 27.0 °F 75% 30.17 in 10.0 mi Calm Calm - N/A   Clear
2:53 AM 33.1 °F - 25.0 °F 72% 30.16 in 10.0 mi Calm Calm - N/A   Clear
3:53 AM 32.0 °F - 25.0 °F 75% 30.15 in 10.0 mi Calm Calm - N/A   Clear
4:53 AM 30.0 °F - 24.1 °F 79% 30.16 in 10.0 mi Calm Calm - N/A   Clear
5:53 AM 30.9 °F - 25.0 °F 79% 30.18 in 10.0 mi Calm Calm - N/A   Clear
6:53 AM 30.0 °F - 24.1 °F 79% 30.20 in 10.0 mi Calm Calm - N/A   Clear
7:53 AM 30.9 °F - 24.1 °F 76% 30.21 in 10.0 mi Calm Calm - N/A   Clear
8:53 AM 37.0 °F 32.4 °F 28.0 °F 70% 30.23 in 10.0 mi East 5.8 mph - N/A   Clear
9:53 AM 42.1 °F 37.7 °F 28.0 °F 58% 30.24 in 10.0 mi ESE 6.9 mph - N/A   Clear
10:53 AM 45.0 °F 41.2 °F 30.0 °F 56% 30.24 in 10.0 mi Variable 6.9 mph - N/A   Clear
11:53 AM 48.9 °F - 30.9 °F 50% 30.21 in 10.0 mi SSE 6.9 mph - N/A   Clear
12:53 PM 52.0 °F - 32.0 °F 47% 30.19 in 10.0 mi Variable 5.8 mph - N/A   Clear
1:53 PM 55.9 °F - 32.0 °F 40% 30.15 in 10.0 mi SSW 11.5 mph - N/A   Clear
2:53 PM 59.0 °F - 30.9 °F 35% 30.11 in 10.0 mi South 13.8 mph 17.3 mph N/A   Clear
3:53 PM 61.0 °F - 32.0 °F 34% 30.09 in 10.0 mi SSW 10.4 mph - N/A   Clear
4:53 PM 61.0 °F - 34.0 °F 36% 30.06 in 10.0 mi South 11.5 mph - N/A   Clear
5:53 PM 62.1 °F - 33.1 °F 34% 30.05 in 10.0 mi SSW 15.0 mph - N/A   Clear
6:53 PM 57.9 °F - 35.1 °F 42% 30.05 in 10.0 mi SSW 9.2 mph - N/A   Clear
7:53 PM 55.0 °F - 36.0 °F 49% 30.04 in 10.0 mi South 9.2 mph - N/A   Clear
8:53 PM 55.0 °F - 34.0 °F 45% 30.04 in 10.0 mi South 11.5 mph - N/A   Clear
9:53 PM 52.0 °F - 35.1 °F 53% 30.04 in 10.0 mi SSW 11.5 mph - N/A   Clear
10:53 PM 48.9 °F - 34.0 °F 56% 30.05 in 10.0 mi SSW 6.9 mph - N/A   Clear
11:53 PM 46.9 °F - 33.1 °F 59% 30.04 in 10.0 mi SSW 5.8 mph - N/A   Clear